TimeCST,TemperatureF,Dew PointF,Humidity,Sea Level PressureIn,VisibilityMPH,Wind Direction,Wind SpeedMPH,Gust SpeedMPH,PrecipitationIn,Events,Conditions,WindDirDegrees,DateUTC
1:53 AM,19.0,17.1,92,30.40,7.0,WSW,3.5,-,N/A,,Clear,250,2013-03-02 07:53:00
2:53 AM,19.9,18.0,92,30.38,6.0,Calm,Calm,-,N/A,,Clear,0,2013-03-02 08:53:00
3:53 AM,18.0,16.0,92,30.37,6.0,Calm,Calm,-,N/A,,Clear,0,2013-03-02 09:53:00
4:53 AM,18.0,15.1,88,30.36,8.0,Calm,Calm,-,N/A,,Clear,0,2013-03-02 10:53:00
5:53 AM,19.0,17.1,92,30.35,7.0,Calm,Calm,-,N/A,,Mostly Cloudy,0,2013-03-02 11:53:00
6:53 AM,19.9,19.0,96,30.34,7.0,Calm,Calm,-,N/A,,Overcast,0,2013-03-02 12:53:00
7:53 AM,23.0,21.0,92,30.34,6.0,Calm,Calm,-,N/A,,Overcast,0,2013-03-02 13:53:00
8:53 AM,26.1,24.1,92,30.34,7.0,Calm,Calm,-,N/A,,Overcast,0,2013-03-02 14:53:00
9:53 AM,30.0,27.0,88,30.31,9.0,SSW,3.5,-,N/A,,Overcast,210,2013-03-02 15:53:00
10:53 AM,37.0,30.0,76,30.29,10.0,SSW,4.6,-,N/A,,Scattered Clouds,210,2013-03-02 16:53:00
11:53 AM,41.0,30.9,67,30.28,10.0,Calm,Calm,-,N/A,,Clear,0,2013-03-02 17:53:00
12:53 PM,42.1,32.0,67,30.26,10.0,South,4.6,-,N/A,,Clear,170,2013-03-02 18:53:00
1:53 PM,45.0,35.1,68,30.22,10.0,Calm,Calm,-,N/A,,Clear,0,2013-03-02 19:53:00
2:53 PM,48.0,36.0,63,30.19,10.0,East,4.6,-,N/A,,Clear,90,2013-03-02 20:53:00
3:53 PM,50.0,37.0,61,30.17,10.0,Calm,Calm,-,N/A,,Clear,0,2013-03-02 21:53:00
4:53 PM,51.1,37.0,59,30.15,10.0,East,3.5,-,N/A,,Clear,90,2013-03-02 22:53:00
5:53 PM,45.0,37.0,74,30.16,10.0,Calm,Calm,-,N/A,,Clear,0,2013-03-02 23:53:00
6:53 PM,39.9,35.1,83,30.17,10.0,South,3.5,-,N/A,,Clear,180,2013-03-03 00:53:00
7:53 PM,37.9,34.0,86,30.16,10.0,SW,6.9,-,N/A,,Clear,230,2013-03-03 01:53:00
8:53 PM,33.1,30.9,92,30.14,10.0,West,4.6,-,N/A,,Clear,260,2013-03-03 02:53:00
9:53 PM,36.0,33.1,89,30.12,10.0,West,5.8,-,N/A,,Clear,280,2013-03-03 03:53:00
10:53 PM,37.9,33.1,83,30.09,10.0,West,5.8,-,N/A,,Clear,260,2013-03-03 04:53:00
11:53 PM,39.0,34.0,82,30.07,10.0,West,5.8,-,N/A,,Clear,260,2013-03-03 05:53:00